Weather History for KAXN - June, 2014

Change the Weather History Date:

Thursday, June 19, 2014

  Actual Average Record
Temperature  
Mean Temperature 68 °F -  
Max Temperature 73 °F 75 °F 101 °F (1988)
Min Temperature 62 °F 54 °F 42 °F (2004)
Cooling Degree Days 2    
Growing Degree Days 18 (Base 50)    
Moisture  
Dew Point 65 °F    
Average Humidity 89    
Maximum Humidity 97    
Minimum Humidity 75    
Precipitation  
Precipitation 0.51 in - - ()
Sea Level Pressure  
Sea Level Pressure 29.89 in    
Wind  
Wind Speed 14 mph (SE)    
Max Wind Speed 26 mph    
Max Gust Speed 38 mph    
Visibility 9 miles    
Events Rain , Thunderstorm    
Averages and records for this station are not official NWS values.
T = Trace of Precipitation, MM = Missing Value Source: NWS Daily Summary

Daily Weather History Graph

Daily Weather History Graph

Search for Another Location

Airport or City:

Trip Planner

Search our weather history database for the weather conditions in past years. The results will help you decide how hot, cold, wet, or windy it might be!

Date:

Astronomy

Jun. 19, 2014 Rise Set
Actual Time 5:30 AM CDT 9:15 PM CDT
Civil Twilight 4:52 AM CDT 9:53 PM CDT
Nautical Twilight 4:00 AM CDT 10:45 PM CDT
Astronomical Twilight 2:49 AM CDT 11:57 PM CDT
Moon 12:58 AM CDT (6/19) 1:25 PM CDT (6/19)
Length of Visible Light 17h 00m
Length of Day
15h 44m
Waning Gibbous, 51% of the Moon is Illuminated
Jun 19
Waning Gibbous
Jun 19
Last Quarter
Jun 27
New
Jul 5
First Quarter
Jul 12
Full

Hourly Weather History & Observations

Time (CDT) Temp. Dew Point Humidity Pressure Visibility Wind Dir Wind Speed Gust Speed Precip Events Conditions
12:53 AM 64.9 °F 57.0 °F 75% 29.82 in 10.0 mi East 24.2 mph 38.0 mph N/A   Clear
2:14 AM 64.4 °F 60.8 °F 88% 29.93 in 8.0 mi Calm Calm - 0.02 in Rain , Thunderstorm Light Rain
2:29 AM 64.4 °F 60.8 °F 88% 29.93 in 10.0 mi NNW 4.6 mph - 0.04 in Rain Light Rain
2:44 AM 62.6 °F 60.8 °F 94% 29.94 in 5.0 mi North 12.7 mph 18.4 mph 0.08 in Rain , Thunderstorm Thunderstorms and Rain
2:53 AM 63.0 °F 60.1 °F 90% 29.91 in 4.0 mi North 11.5 mph - 0.11 in Rain , Thunderstorm Thunderstorms and Rain
3:03 AM 62.6 °F 60.8 °F 94% 29.95 in 4.0 mi North 11.5 mph - 0.03 in Rain Rain
3:33 AM 62.6 °F 60.8 °F 94% 29.95 in 3.0 mi North 12.7 mph - 0.16 in Rain Rain
3:53 AM 62.1 °F 60.1 °F 93% 29.90 in 7.0 mi NE 16.1 mph 23.0 mph 0.19 in Rain Light Rain
4:18 AM 62.6 °F 60.8 °F 94% 29.84 in 6.0 mi ENE 25.3 mph 31.1 mph 0.05 in Rain Rain
5:01 AM 62.6 °F - N/A% 29.80 in 9.0 mi East 21.9 mph 29.9 mph N/A   Mostly Cloudy
5:53 AM 64.0 °F - N/A% 29.92 in 10.0 mi SSE 13.8 mph 19.6 mph N/A   Overcast
6:04 AM 64.4 °F - N/A% 29.94 in 10.0 mi SE 11.5 mph - 0.01 in Rain Light Rain
6:37 AM 64.4 °F - N/A% 29.83 in 6.0 mi NNE 12.7 mph 29.9 mph 0.02 in Rain Light Rain
6:53 AM 64.9 °F - N/A% 29.89 in 10.0 mi ESE 3.5 mph - 0.03 in Rain Light Rain
7:14 AM 64.4 °F 62.6 °F 94% 29.92 in 10.0 mi East 3.5 mph - 0.00 in   Mostly Cloudy
7:53 AM 66.0 °F 64.0 °F 93% 29.90 in 10.0 mi ESE 16.1 mph 23.0 mph 0.00 in   Overcast
8:09 AM 66.2 °F 64.4 °F 94% 29.90 in 10.0 mi SE 20.7 mph 29.9 mph 0.01 in   Overcast
8:53 AM 66.0 °F 64.0 °F 93% 29.88 in 10.0 mi ESE 21.9 mph 27.6 mph 0.01 in   Overcast
9:13 AM 66.2 °F 62.6 °F 88% 29.90 in 10.0 mi SE 19.6 mph 29.9 mph N/A   Overcast
9:53 AM 64.9 °F 63.0 °F 93% 29.90 in 5.0 mi SE 21.9 mph 32.2 mph 0.02 in Rain Rain
10:42 AM 66.2 °F 64.4 °F 94% 29.85 in 10.0 mi SE 26.5 mph 38.0 mph 0.07 in Rain Light Rain
10:50 AM 66.2 °F 64.4 °F 94% 29.85 in 10.0 mi SE 24.2 mph 38.0 mph 0.07 in   Overcast
10:53 AM 66.0 °F 64.0 °F 93% 29.85 in 10.0 mi SE 25.3 mph 38.0 mph 0.07 in   Overcast
11:48 AM 71.6 °F 64.4 °F 78% 29.87 in 10.0 mi SE 20.7 mph 33.4 mph N/A   Scattered Clouds
11:53 AM 71.1 °F 64.0 °F 78% 29.86 in 10.0 mi SE 24.2 mph 33.4 mph N/A   Partly Cloudy
12:49 PM 71.6 °F 64.4 °F 78% 29.88 in 10.0 mi SE 20.7 mph 33.4 mph N/A   Overcast
12:53 PM 72.0 °F 64.9 °F 78% 29.86 in 10.0 mi SE 21.9 mph 33.4 mph N/A   Overcast
1:53 PM 71.1 °F 64.0 °F 78% 29.88 in 10.0 mi SSE 21.9 mph 29.9 mph N/A   Overcast
2:53 PM 71.1 °F 66.0 °F 84% 29.87 in 10.0 mi SSE 18.4 mph 24.2 mph N/A   Overcast
3:53 PM 72.0 °F 66.9 °F 84% 29.88 in 10.0 mi SSE 17.3 mph - N/A   Overcast
4:00 PM 73.4 °F 68.0 °F 83% 29.88 in 10.0 mi SE 17.3 mph - N/A   Overcast
4:13 PM 73.4 °F 68.0 °F 83% 29.85 in 10.0 mi SE 13.8 mph - N/A   Overcast
4:45 PM 71.6 °F 68.0 °F 88% 29.87 in 10.0 mi SE 12.7 mph - N/A Thunderstorm Overcast
4:53 PM 72.0 °F 68.0 °F 87% 29.88 in 10.0 mi SSE 12.7 mph - N/A Thunderstorm Overcast
5:00 PM 71.6 °F 68.0 °F 88% 29.88 in 10.0 mi SSE 13.8 mph - N/A   Overcast
5:08 PM 71.6 °F 69.8 °F 94% 29.89 in 6.0 mi SSE 10.4 mph - 0.01 in Rain , Thunderstorm Light Rain
5:23 PM 71.6 °F 69.8 °F 94% 29.90 in 4.0 mi South 9.2 mph - 0.04 in Rain Light Rain
5:32 PM 71.6 °F 69.8 °F 94% 29.90 in 4.0 mi South 11.5 mph - 0.06 in Rain Rain
5:53 PM 70.0 °F 68.0 °F 93% 29.88 in 10.0 mi South 9.2 mph - 0.07 in Thunderstorm Overcast
6:04 PM 69.8 °F 66.2 °F 88% 29.88 in 10.0 mi SSE 10.4 mph - N/A Thunderstorm Overcast
6:33 PM 69.8 °F 68.0 °F 94% 29.89 in 10.0 mi SSE 9.2 mph - N/A   Scattered Clouds
6:53 PM 70.0 °F 66.9 °F 90% 29.88 in 10.0 mi SSE 9.2 mph - N/A   Clear
7:53 PM 71.1 °F 68.0 °F 90% 29.90 in 10.0 mi SSE 8.1 mph - N/A   Overcast
8:53 PM 70.0 °F 69.1 °F 97% 29.91 in 10.0 mi South 5.8 mph - N/A   Clear
9:53 PM 69.1 °F 68.0 °F 96% 29.92 in 10.0 mi South 5.8 mph - N/A   Mostly Cloudy
10:26 PM 69.8 °F 68.0 °F 94% 29.94 in 10.0 mi Calm Calm - N/A   Mostly Cloudy
10:53 PM 68.0 °F 66.9 °F 96% 29.93 in 10.0 mi SSE 3.5 mph - 0.01 in Thunderstorm Mostly Cloudy
11:10 PM 68.0 °F 66.2 °F 94% 29.95 in 10.0 mi WNW 4.6 mph - N/A   Scattered Clouds
11:53 PM 66.9 °F 64.0 °F 90% 29.95 in 10.0 mi West 8.1 mph - N/A   Mostly Cloudy